Regional Weather Roundup
Issued by NWS

Home | Current Version | Previous Version | Graphics & Text | Print | Product List | Glossary On
Versions: 1 2 3 4 5 6 7 8 9 10 11 12 13 14 15 16 17 18 19 20 21 22 23 24 25 26 27 28 29 30 31 32 33 34 35 36 37 38 39 40 41 42 43 44 45 46 47 48 49 50
000
ASUS43 KFSD 221802
RWRSD

WEATHER ROUNDUP FOR SOUTH DAKOTA
NATIONAL WEATHER SERVICE SIOUX FALLS SD
100 PM CDT TUE APR 22 2014

NOTE: "FAIR" INDICATES FEW OR NO CLOUDS BELOW 12,000 FEET WITH NO
SIGNIFICANT WEATHER AND/OR OBSTRUCTIONS TO VISIBILITY.


SDZ001>005-009-010-012>017-221900-
NORTHWEST AND NORTH CENTRAL SOUTH DAKOTA

CITY           SKY/WX    TMP DP  RH WIND       PRES   REMARKS
FAITH            N/A     66  33  29 SE23G30   29.81F
MOBRIDGE       PTSUNNY   64  29  26 SE24G31   29.90F
$$

SDZ012>016-024>037-041>051-057-063-072>074-221900-
SOUTHWEST AND SOUTH CENTRAL SOUTH DAKOTA

CITY           SKY/WX    TMP DP  RH WIND       PRES   REMARKS
RAPID CTY ARPT PTSUNNY   68  39  34 SE14      29.76F
PIERRE         SUNNY     68  31  25 SE29G36   29.89F
CUSTER         PTSUNNY   67  28  23 SW10G21   29.84F
ELLSWORTH AFB  PTSUNNY   67  39  35 S9        29.76F
PHILIP         SUNNY     75  37  25 S18G25    29.78F
PINE RIDGE     PTSUNNY   73  41  31 SW23G30   29.81F
WINNER         FAIR      69  30  23 SE26G36   29.92F
$$

SDZ004>011-016>023-039-040-221900-
NORTHEAST SOUTH DAKOTA

CITY           SKY/WX    TMP DP  RH WIND       PRES   REMARKS
ABERDEEN       SUNNY     62  29  28 SE13      30.03F
WATERTOWN      FAIR      59  30  33 SE10G17   30.06F
SISSETON         N/A     60  32  34 SE13      30.06F
$$

SDZ017-020-022-023-036>040-048>070-221900-
SOUTHEAST SOUTH DAKOTA

CITY           SKY/WX    TMP DP  RH WIND       PRES   REMARKS
SIOUX FALLS    FAIR      61  31  32 SE12G17   30.09F
HURON          MOSUNNY   63  30  28 MISG      30.03F
CHAMBERLAIN      N/A     63  30  28 S23G36    29.96F
MITCHELL       MOSUNNY   63  30  28 S17G28    30.05F
YANKTON        FAIR      63  28  27 S16G22    30.09F
$$

ABBREVIATIONS USED IN REMARKS
   TC - TEMPERATURE IN CELSIUS
  WCI - WIND CHILL INDEX
   HX - HEAT INDEX
  VSB - VISIBILITY




USA.gov is the U.S. government's official web portal to all federal, state and local government web resources and services.